Погода в Преображенке

Россия / Иркутская область     60°01′27″N   108°05′31″E
темп.,
°C
ветер,
м/с
пор.,
м/с
влажн.,
%
обл.,
%
осадки,
мм/ч
давл.,
гПа
погр.,
м
20 января, чт
чт2023:00−25ю2210076 0.0 103023
02:00−26ю2210082 0.0 103031
05:00−26ю2310082 0.0 103041
08:00−25ю2310083 0.0 103149
11:00−21ю2610098 0.0 1030104
14:00−14ююз379494 0.1 1029233
17:00−13ююз3896100 0.2 1029243
20:00−15ю259880 0.3 1030110
21 января, пт
пт2123:00−13ююз2896100 0.1 1030234
02:00−12ююз279688 0.3 1030266
05:00−12ююз2796100 0.3 1030294
08:00−12юз2796100 0.4 1031257
11:00−11юз3895100 0.1 1031422
14:00−10зюз379398 0.3 1031494
17:00−14юз119888 0.1 103315
20:00−19юз1110082 0.1 103410
22 января, сб
сб2223:00−23юз1110099 0.0 103610
02:00−24ююз21100100 0.1 103711
05:00−25ююз22100100 0.0 103714
08:00−25ю21100100 0.0 103727
11:00−20ююз259951 0.0 1037118
14:00−14зюз379387 0.0 1035277
17:00−20юз2110042 0.0 10369
20:00−23юз1110070 0.0 103710
23 января, вс
вс2323:00−24юз2110067 0.0 103811
02:00−25юз1110078 0.0 103910
05:00−26ююз1110086 0.0 103910
08:00−27ююз1110099 0.0 103911
11:00−22юз129999 0.0 103865
14:00−16юз129495 0.0 1037157
17:00−20ю11100100 0.0 10379
20:00−21ююз11100100 0.0 10379
24 января, пн
пн2423:00−23ююз11100100 0.0 103711
02:00−25ююз11100100 0.0 103710
05:00−24ююз11100100 0.0 103720
08:00−24ююз12100100 0.1 103632
11:00−21юз139990 0.1 103686
14:00−17юз2494100 0.1 1034202
17:00−20ю1110099 0.0 103510
20:00−22ююз1110085 0.0 103524